Location: Clermont
(50.2608°N, 4.3172°E)
Time: 21:50:19
(UTC+00:00)

SJ 16-02 - Pass Details

Date: 13 August 2020
Orbit: 607 x 616 km, 75.0° (Epoch: 22 September)

Event Time Altitude Azimuth Distance (km) Brightness Sun altitude
Exits shadow 23:55:11 20° 87° (E) 1,441 3.2 -25.4°
Drops below altitude 10° 23:57:50 10° 50° (NE) 1,978 4.5 -25.4°
Sets 00:00:32 0° 34° (NE) 2,886 5.7 -25.4°
